Hourly Data Report for December 15, 2020

FORT GOOD HOPE CS
NORTHWEST TERRITORIES
Current Station Operator: ECCC - MSC

66°14'32.044" N
128°38'39.081" W
81.70 m
2201450
71491
ZGH

Download Data

Hourly Data (December 2020)
Hourly Data Report for December 15, 2020
TIME
LST
Temp Definition
°C
Dew Point Definition
°C
Rel Hum Definition
%
Precip. Amount Definition
mm

Wind Dir Definition
10's deg

Wind Spd Definition
km/h
Visibility Definition
km
Stn Press Definition
kPa
Hmdx Definition


Wind Chill Definition


Weather Definition


00:00 -31.3 -34.7 72 0.0 19 4   101.46   -36 LegendNANA
01:00 -30.3 -33.6 73 0.0 23 5   101.40   -36 LegendNANA
02:00 -30.0 -33.3 73 0.0 23 6   101.40   -37 LegendNANA
03:00 -29.5 -32.7 73 0.0 25 7   101.34   -37 LegendNANA
04:00 -29.1 -32.3 73 0.0 26 5   101.31   -35 LegendNANA
05:00 -28.5 -31.7 74 0.0 24 6   101.24   -35 LegendNANA
06:00 -28.0 -31.2 74 0.0 25 8   101.19   -36 LegendNANA
07:00 -27.9 -31.1 74 0.0 24 8   101.13   -36 LegendNANA
08:00 -27.7 -30.8 75 0.0 27 11   101.09   -37 LegendNANA
09:00 -28.2 -31.4 74 0.0 26 12   101.04   -38 LegendNANA
10:00 -28.5 -31.7 74 0.0 26 10   100.99   -37 LegendNANA
11:00 -28.6 -31.8 74 0.0 27 10   100.95   -37 LegendNANA
12:00 -29.2 -32.5 74 0.0 26 10   100.92   -38 LegendNANA
13:00 -29.6 -32.9 73 0.0 27 8   100.93   -38 LegendNANA
14:00 -29.4 -32.7 73 0.0 27 9   100.90   -38 LegendNANA
15:00 -28.7 -31.9 74 0.0 25 10   100.85   -38 LegendNANA
16:00 -28.5 -31.7 74 0.0 27 9   100.84   -37 LegendNANA
17:00 -28.5 -31.6 74 0.0 29 8   100.82   -36 LegendNANA
18:00 -28.6 -31.8 74 0.0 30 6   100.81   -35 LegendNANA
19:00 -28.5 -31.6 74 0.0 27 8   100.79   -36 LegendNANA
20:00 -28.7 -31.9 74 0.0 28 7   100.78   -36 LegendNANA
21:00 -28.7 -31.9 74 0.0 29 3   100.79   -32 LegendNANA
22:00 -28.7 -31.8 74 0.0 25 5   100.82   -34 LegendNANA
23:00 -28.3 -31.4 74 0.0 28 5   100.85   -34 LegendNANA

Notes on Data Quality.

Legend

  • E = Estimated
  • M = Missing
  • NA = Not Available*
  • [empty] = Indicates an unobserved value
Date modified: